Location: Krasnoyarskiy Pitomnik
(51.1333°N, 71.6167°E)
Time: 09:39:02
(UTC+00:00)

Cosmos 1190 Rocket - Pass Details

Date: 22 October 2021
Orbit: 756 x 780 km, 74.1° (Epoch: 06 December)

Event Time Altitude Azimuth Distance (km) Brightness Sun altitude
Rises 15:06:33 0° 334° (NNW) 3,226 7.8 -28.7°
Reaches altitude 10° 15:08:55 10° 334° (NNW) 2,298 7.0 -29.0°
Enters shadow 15:13:10 59° 320° (NW) 876 4.4 -29.6°
